Tracking 17145 objects as of 29-May-2015
HD Live streaming from Space Station

COSMOS 2251 DEB

Track COSMOS 2251 DEB now!
10-day predictions
COSMOS 2251 DEB is classified as:


NORAD ID: 37326
Int'l Code: 1993-036BKS
Perigee: 684.8 km
Apogee: 781.5 km
Inclination: 74.0 °
Period: 99.3 minutes
Semi major axis: 7104 km
RCS: 0.0127 m2 (small)
Launch date: June 16, 1993
Source: Commonwealth of Independent States (former USSR) (CIS)

Note: This is SATELLITE DEBRIS
Your satellite tracking list
Your tracking list is empty





NASA's NSSDC Master Catalog

Two Line Element Set (TLE):
1 37326U 93036BKS 15149.04897675  .00000861  00000-0  22374-3 0  9994
2 37326 074.0304 041.4914 0068073 046.2428 314.4338 14.49879169297602

Source of the keplerian elements: AFSPC

N2YO: 333